Home > Weather > Wichita > Past weeks

Flag for USA Past Weather in Wichita, Kansas, USA — Yesterday and Last 2 Weeks

Now
69 °F

Passing clouds.


Feels Like: 69 °F
Forecast: 69 / 83 °F
Wind: 15 mph from Southeast

Location: Wichita Mid-Continent Airport

Current Time: May 24, 2016 at 1:17:44 AM

Latest Report: May 24, 2016 at 12:53 AM


Visibility: 10 mi

Pressure: 29.78 "Hg

Humidity: 87%

Dew Point: 65 °F

Location of WichitaLocation

Past Weather in Wichita — Graph

°F

Wichita Temperature Yesterday

Maximum temperature yesterday: 73 °F (at 4:53 PM)
Minimum temperature yesterday: 62 °F (at 11:00 AM)
Average temperature yesterday: 69 °F

High & Low Weather Summary for the Past Weeks

 TemperatureHumidityPressure
High86 °F (May 13, 4:53 PM)97% (May 16, 8:01 AM)30.35 "Hg (May 16, 8:01 AM)
Low44 °F (May 18, 5:53 AM)29% (May 12, 5:53 PM)29.49 "Hg (May 9, 3:53 PM)
Average63 °F68%30.00 "Hg
* Reported May 8 11:53 PM — May 23 11:53 PM, Wichita, Weather by CustomWeather, © 2016

Note: Actual official high and low records may vary slightly from our data, if they occured in-between our weather recording intervals... More about our weather records

Advertising

Wichita Weather History for the Previous 24 Hours

Scroll right to see more
 ConditionsComfort  
Time TempWeatherWind HumidityBarometerVisibility
11:53 PM
Mon, May 23
69 °FOvercast.14 mph87%29.82 "Hg10 mi
10:53 PM69 °FOvercast.14 mph87%29.82 "Hg10 mi
9:53 PM69 °FOvercast.16 mph84%29.79 "Hg10 mi
8:53 PM70 °FOvercast.14 mph79%29.76 "Hg10 mi
7:53 PM71 °FPartly sunny.17 mph76%29.76 "Hg10 mi
6:53 PM73 °FBroken clouds.18 mph69%29.76 "Hg10 mi
5:53 PM73 °FScattered clouds.22 mph69%29.75 "Hg10 mi
4:53 PM73 °FBroken clouds.22 mph71%29.76 "Hg10 mi
3:53 PM72 °FBroken clouds.22 mph78%29.77 "Hg10 mi
2:53 PM68 °FBroken clouds.15 mph87%29.79 "Hg10 mi
2:00 PM65 °FMore clouds than sun.17 mph91%29.85 "Hg10 mi
1:00 PM63 °FThunderstorms. Cloudy.8 mph93%29.88 "Hg10 mi
11:53 AM62 °FThunderstorms. Fog.12 mph90%29.85 "Hg3 mi
11:00 AM62 °FStrong thunderstorms. Fog.9 mph86%29.87 "Hg1 mi
9:53 AM65 °FThunderstorms. Cloudy.15 mph85%29.80 "Hg6 mi
8:53 AM67 °FThunderstorms. Fog.16 mph90%29.80 "Hg4 mi
7:53 AM68 °FThunderstorms. Cloudy.17 mph84%29.79 "Hg6 mi
6:53 AM69 °FMostly cloudy.21 mph81%29.78 "Hg10 mi
5:53 AM69 °FMostly cloudy.21 mph81%29.76 "Hg10 mi
4:53 AM69 °FMostly cloudy.16 mph81%29.74 "Hg10 mi
3:53 AM69 °FOvercast.15 mph81%29.73 "Hg10 mi
2:53 AM70 °FOvercast.24 mph81%29.74 "Hg10 mi
1:53 AM71 °FOvercast.26 mph78%29.76 "Hg10 mi
Weather by CustomWeather, © 2016

See weather overviewHow to use our weather pages